When you browse on this site, cookies collect data to enhance your experience and personalize the content and advertising you see.
Visit our Privacy Policy to learn more. By continuing to use the site, you agree to this use of cookies and data.
  • En España
  • Lista de países
  • Para 7 días
  • Temperatura del agua
  • El tiempo en el mapa
  • Informadores
  • user-avatar
    Iniciar sesión

    Tiempo cada hora Chernousovo

    Hoy, 20 Agosto, Martes

    Tiempo Temperatura Precipitaciones Viento Presión Humedad
    00:00 +16°C° 0 mm 0 mps 749 mmHg 86%
    01:00 +15°C° 0 mm 0 mps 749 mmHg 87%
    02:00 +15°C° 0 mm 0 mps 749 mmHg 87%
    03:00 +15°C° 0 mm 0 mps 749 mmHg 87%
    04:00 +15°C° 0 mm 0 mps 749 mmHg 87%
    05:00 +15°C° 0 mm 0 mps 750 mmHg 87%
    06:00 +17°C° 0 mm 0 mps 750 mmHg 82%
    07:00 +19°C° 0 mm 0 mps 750 mmHg 76%
    08:00 +20°C° 0 mm 0 mps 750 mmHg 71%
    09:00 +24°C° 0 mm 1 mps 750 mmHg 66%
    10:00 +25°C° 0 mm 1 mps 750 mmHg 61%
    11:00 +26°C° 0 mm 1 mps 750 mmHg 56%
    12:00 +26°C° 0 mm 1 mps 750 mmHg 54%
    13:00 +27°C° 0 mm 1 mps 750 mmHg 53%
    14:00 +27°C° 0 mm 1 mps 750 mmHg 51%
    15:00 +27°C° 0 mm 1 mps 750 mmHg 55%
    16:00 +27°C° 0 mm 1 mps 750 mmHg 59%
    17:00 +27°C° 0 mm 1 mps 750 mmHg 63%
    18:00 +25°C° 0 mm 1 mps 750 mmHg 67%
    19:00 +21°C° 0 mm 0 mps 750 mmHg 70%
    20:00 +19°C° 0 mm 0 mps 750 mmHg 73%
    21:00 +19°C° 0 mm 0 mps 750 mmHg 74%
    22:00 +19°C° 0 mm 0 mps 750 mmHg 75%
    23:00 +20°C° 0 mm 1 mps 750 mmHg 77%

    Mañana, 21 Agosto, Miércoles

    Tiempo Temperatura Precipitaciones Viento Presión Humedad
    00:00 +20°C° 0 mm 1 mps 751 mmHg 78%
    01:00 +20°C° 0 mm 1 mps 751 mmHg 79%
    02:00 +19°C° 0 mm 1 mps 751 mmHg 81%
    03:00 +19°C° 0 mm 1 mps 751 mmHg 81%
    04:00 +19°C° 0 mm 1 mps 751 mmHg 82%
    05:00 +17°C° 0 mm 0 mps 751 mmHg 83%
    06:00 +21°C° 0 mm 1 mps 751 mmHg 78%
    07:00 +22°C° 0 mm 1 mps 751 mmHg 73%
    08:00 +24°C° 0 mm 1 mps 751 mmHg 69%
    09:00 +25°C° 0 mm 1 mps 751 mmHg 65%
    10:00 +25°C° 0 mm 0 mps 751 mmHg 62%
    11:00 +26°C° 0 mm 0 mps 751 mmHg 58%
    12:00 +28°C° 0 mm 1 mps 751 mmHg 56%
    13:00 +29°C° 0 mm 1 mps 751 mmHg 55%
    14:00 +29°C° 0 mm 1 mps 751 mmHg 53%
    15:00 +29°C° 0 mm 1 mps 750 mmHg 57%
    16:00 +29°C° 0 mm 1 mps 750 mmHg 60%
    17:00 +28°C° 0 mm 1 mps 750 mmHg 64%
    18:00 +27°C° 0 mm 1 mps 750 mmHg 67%
    19:00 +25°C° 0 mm 1 mps 750 mmHg 71%
    20:00 +23°C° 0 mm 1 mps 750 mmHg 75%
    21:00 +23°C° 0 mm 1 mps 750 mmHg 76%
    22:00 +21°C° 0 mm 2 mps 750 mmHg 78%
    23:00 +21°C° 0 mm 2 mps 750 mmHg 80%

    Pasado mañana, 22 Agosto, Jueves

    Tiempo Temperatura Precipitaciones Viento Presión Humedad
    00:00 +20°C° 0 mm 2 mps 749 mmHg 81%
    01:00 +21°C° 0 mm 1 mps 749 mmHg 82%
    02:00 +20°C° 0 mm 1 mps 749 mmHg 84%
    03:00 +20°C° 0 mm 1 mps 749 mmHg 84%
    04:00 +20°C° 0 mm 1 mps 749 mmHg 85%
    05:00 +20°C° 0 mm 1 mps 748 mmHg 86%
    06:00 +21°C° 0 mm 1 mps 748 mmHg 80%
    07:00 +23°C° 0 mm 1 mps 749 mmHg 75%
    08:00 +24°C° 0 mm 1 mps 749 mmHg 70%
    09:00 +26°C° 0 mm 1 mps 749 mmHg 66%
    10:00 +27°C° 0 mm 1 mps 748 mmHg 63%
    11:00 +28°C° 0 mm 1 mps 748 mmHg 59%
    12:00 +28°C° 0 mm 1 mps 748 mmHg 58%
    13:00 +29°C° 0 mm 1 mps 748 mmHg 57%
    14:00 +29°C° 0 mm 1 mps 748 mmHg 56%
    15:00 +28°C° 0.5 mm 2 mps 748 mmHg 62%
    16:00 +27°C° 0.5 mm 2 mps 748 mmHg 68%
    17:00 +26°C° 0.5 mm 3 mps 748 mmHg 74%
    18:00 +25°C° 0.4 mm 3 mps 748 mmHg 80%
    19:00 +22°C° 0.4 mm 4 mps 749 mmHg 86%
    20:00 +20°C° 0.4 mm 5 mps 749 mmHg 92%
    21:00 +19°C° 0 mm 5 mps 749 mmHg 93%
    22:00 +19°C° 0 mm 4 mps 749 mmHg 93%
    23:00 +18°C° 0 mm 4 mps 750 mmHg 93%

    23 Agosto, Viernes

    Tiempo Temperatura Precipitaciones Viento Presión Humedad
    00:00 +18°C° 0 mm 4 mps 750 mmHg 93%
    01:00 +17°C° 0 mm 4 mps 750 mmHg 93%
    02:00 +17°C° 0 mm 4 mps 750 mmHg 92%
    03:00 +15°C° 0.1 mm 4 mps 750 mmHg 92%
    04:00 +15°C° 0.1 mm 4 mps 750 mmHg 92%
    05:00 +15°C° 0.1 mm 4 mps 750 mmHg 93%
    06:00 +15°C° 0.1 mm 4 mps 750 mmHg 89%
    07:00 +17°C° 0.1 mm 4 mps 751 mmHg 85%
    08:00 +17°C° 0.1 mm 5 mps 751 mmHg 82%
    09:00 +19°C° 0 mm 5 mps 751 mmHg 78%
    10:00 +20°C° 0 mm 5 mps 751 mmHg 73%
    11:00 +21°C° 0 mm 5 mps 751 mmHg 69%
    12:00 +22°C° 0 mm 4 mps 751 mmHg 67%
    13:00 +22°C° 0 mm 4 mps 751 mmHg 65%
    14:00 +23°C° 0 mm 4 mps 751 mmHg 63%
    15:00 +22°C° 0 mm 4 mps 751 mmHg 65%
    16:00 +22°C° 0 mm 3 mps 751 mmHg 68%
    17:00 +21°C° 0 mm 3 mps 751 mmHg 71%
    18:00 +20°C° 0 mm 3 mps 751 mmHg 73%
    19:00 +19°C° 0 mm 2 mps 751 mmHg 76%
    20:00 +17°C° 0 mm 2 mps 751 mmHg 79%
    21:00 +16°C° 0 mm 2 mps 751 mmHg 80%
    22:00 +16°C° 0 mm 2 mps 751 mmHg 81%
    23:00 +15°C° 0 mm 2 mps 752 mmHg 83%

    24 Agosto, Sábado

    Tiempo Temperatura Precipitaciones Viento Presión Humedad
    00:00 +15°C° 0 mm 2 mps 752 mmHg 84%
    01:00 +14°C° 0 mm 2 mps 752 mmHg 85%
    02:00 +14°C° 0 mm 2 mps 752 mmHg 86%
    03:00 +14°C° 0 mm 2 mps 752 mmHg 86%
    04:00 +13°C° 0 mm 2 mps 752 mmHg 86%
    05:00 +13°C° 0 mm 2 mps 752 mmHg 86%
    06:00 +14°C° 0 mm 3 mps 752 mmHg 82%
    07:00 +16°C° 0 mm 3 mps 753 mmHg 77%
    08:00 +18°C° 0 mm 3 mps 753 mmHg 73%
    09:00 +19°C° 0 mm 3 mps 753 mmHg 67%
    10:00 +20°C° 0 mm 3 mps 753 mmHg 60%
    11:00 +21°C° 0 mm 3 mps 753 mmHg 54%
    12:00 +22°C° 0 mm 3 mps 753 mmHg 52%
    13:00 +23°C° 0 mm 2 mps 753 mmHg 50%
    14:00 +24°C° 0 mm 2 mps 752 mmHg 48%
    15:00 +23°C° 0 mm 2 mps 752 mmHg 52%
    16:00 +23°C° 0 mm 2 mps 752 mmHg 56%
    17:00 +21°C° 0 mm 2 mps 752 mmHg 60%
    18:00 +21°C° 0 mm 1 mps 752 mmHg 62%
    19:00 +19°C° 0 mm 1 mps 752 mmHg 65%
    20:00 +15°C° 0 mm 0 mps 752 mmHg 67%
    21:00 +16°C° 0 mm 1 mps 752 mmHg 68%
    22:00 +16°C° 0 mm 1 mps 752 mmHg 68%
    23:00 +15°C° 0 mm 1 mps 752 mmHg 69%

    25 Agosto, Domingo

    Tiempo Temperatura Precipitaciones Viento Presión Humedad
    00:00 +15°C° 0 mm 1 mps 752 mmHg 70%
    01:00 +15°C° 0 mm 1 mps 752 mmHg 71%
    02:00 +14°C° 0 mm 2 mps 752 mmHg 72%
    03:00 +14°C° 0 mm 2 mps 752 mmHg 74%
    04:00 +14°C° 0 mm 2 mps 752 mmHg 76%
    05:00 +13°C° 0 mm 2 mps 752 mmHg 78%
    06:00 +15°C° 0 mm 2 mps 752 mmHg 76%
    07:00 +17°C° 0 mm 2 mps 752 mmHg 74%
    08:00 +18°C° 0 mm 2 mps 752 mmHg 71%
    09:00 +20°C° 0 mm 3 mps 752 mmHg 67%
    10:00 +21°C° 0 mm 3 mps 751 mmHg 63%
    11:00 +22°C° 0 mm 3 mps 751 mmHg 59%
    12:00 +24°C° 0 mm 3 mps 751 mmHg 57%
    13:00 +24°C° 0 mm 3 mps 751 mmHg 56%
    14:00 +24°C° 0 mm 3 mps 750 mmHg 55%
    15:00 +24°C° 0 mm 3 mps 750 mmHg 58%
    16:00 +24°C° 0 mm 3 mps 750 mmHg 62%
    17:00 +23°C° 0 mm 2 mps 749 mmHg 65%
    18:00 +21°C° 0 mm 2 mps 750 mmHg 70%
    19:00 +19°C° 0 mm 2 mps 750 mmHg 74%
    20:00 +17°C° 0 mm 2 mps 750 mmHg 78%
    21:00 +17°C° 0 mm 2 mps 750 mmHg 80%
    22:00 +16°C° 0 mm 2 mps 750 mmHg 83%
    23:00 +16°C° 0 mm 2 mps 750 mmHg 85%
    Mostrar más